Temp
6 6 6 6 6 6 7 6 6 6 6 6 7 8 8 8 8 9 10 10 10 11 11 11 11 11 11 11 12 12 12 12 12 12 12 13 13 13 13 12 12 13 12 11 11 11 12 13 12 12 12 12
5 5 5 5 5 6 6 6 6 6 6 6 6 6 7 7 7 8 8 9 9 10 11 10 10 10 10 10 11 11 11 11 12 12 12 12 12 12 12 12 12 12 12 11 11 11 12 12 12 12 12 12
5 5 5 5 5 5 6 6 7 7 6 7 6 6 6 6 6 7 7 8 8 9 10 10 10 10 10 10 10 10 11 11 11 11 11 12 12 12 12 12 12 12 12 11 12 11 11 12 12 13 12 12
5 5 5 5 5 5 5 5 6 7 6 7 7 6 6 6 6 6 7 7 8 8 9 9 10 10 10 10 10 10 10 10 10 10 11 11 11 11 12 12 12 12 12 12 11 11 11 11 12 12 12 11
4 4 5 5 5 5 5 5 5 6 6 6 6 6 6 6 6 5 6 6 7 8 8 8 9 9 9 9 10 10 9 9 10 10 10 10 11 11 11 12 11 12 12 12 11 11 11 11 12 12 11 11
3 3 4 4 4 4 4 5 5 5 5 5 5 5 5 5 5 5 5 5 6 7 7 8 8 8 9 9 9 9 9 9 9 10 10 10 10 10 11 11 11 11 11 11 10 11 11 11 11 12 12 11
3 3 3 3 3 3 4 4 4 4 5 5 5 5 5 5 5 5 5 4 5 6 7 7 7 8 8 9 9 9 9 9 10 10 10 10 10 10 11 11 11 11 11 11 11 11 11 11 11 12 12 12
3 3 3 3 3 3 3 3 3 3 4 4 4 4 4 5 5 5 5 5 5 6 7 7 7 7 7 8 8 9 9 9 9 10 10 10 10 10 10 11 11 11 11 11 11 11 11 11 11 11 12 12
3 3 3 3 3 3 3 3 3 3 3 3 3 4 4 4 4 4 5 5 5 5 6 6 7 7 7 7 7 8 8 8 9 9 9 10 10 10 10 10 10 11 11 10 10 11 11 11 11 11 11 12
2 2 3 3 3 3 3 3 3 3 3 3 3 3 3 3 3 4 4 4 5 5 5 5 6 6 5 6 6 7 7 8 8 8 9 9 10 10 10 10 10 10 11 10 10 10 11 11 11 11 11 11
2 2 2 2 2 2 2 2 3 3 2 2 2 2 2 2 3 3 3 3 4 4 5 5 5 5 5 5 5 6 6 7 7 7 8 8 9 9 10 9 9 10 10 10 10 9 10 11 11 11 11 11
2 2 2 2 2 2 2 2 2 2 2 2 2 2 2 2 2 3 2 2 3 3 4 4 5 5 5 5 5 5 5 6 6 7 7 7 8 8 9 9 9 9 10 10 10 9 9 10 10 11 11 11
1 1 1 1 1 1 1 2 2 2 2 2 2 2 2 2 2 2 2 2 2 2 3 3 4 4 4 5 5 5 4 5 5 6 6 6 6 7 7 8 9 9 9 9 10 10 10 10 10 10 11 11
1 0 1 0 1 1 1 1 1 1 2 2 2 2 1 1 2 2 2 2 2 2 2 2 3 3 3 4 4 4 4 4 4 5 5 5 5 6 6 6 7 8 8 8 9 9 10 10 10 10 10 10
-0 -0 -0 -0 -0 0 0 0 1 1 2 2 2 1 1 1 1 1 2 2 2 2 2 2 3 2 3 3 3 3 3 4 4 4 5 5 4 5 5 5 6 7 7 8 8 9 9 10 10 10 10 10
-1 -1 -1 -1 -0 -0 -1 -0 0 1 1 1 1 1 1 1 1 1 1 1 1 1 2 2 2 2 2 3 3 3 2 3 3 3 4 4 4 4 4 5 5 6 6 7 7 8 8 9 9 9 10 9
-1 -2 -1 -1 -1 -1 -1 -1 -0 -0 1 1 1 1 0 0 0 0 1 1 1 1 1 2 2 2 2 3 3 3 2 2 2 2 3 3 4 4 4 4 5 5 5 6 6 7 7 7 8 9 9 9
-2 -2 -2 -2 -2 -2 -2 -1 -1 -1 -0 -0 -0 -0 -0 -0 -0 -0 0 0 0 1 1 1 1 2 2 2 2 2 2 2 2 2 2 3 3 4 4 4 4 4 4 5 5 6 6 6 6 7 8 9
-3 -3 -3 -3 -2 -2 -2 -2 -1 -1 -1 -1 -1 -1 -1 -1 -1 -1 -0 -0 -0 -0 0 1 1 1 1 2 1 2 2 2 2 2 3 3 3 3 3 3 4 4 4 4 4 5 5 5 5 5 6 7
-3 -3 -3 -3 -3 -3 -3 -3 -2 -2 -2 -2 -2 -1 -1 -1 -1 -1 -1 -1 -1 -1 -0 0 0 1 1 1 1 1 1 1 2 2 2 3 3 3 3 3 3 3 3 3 4 4 4 5 5 5 5 6
-3 -3 -3 -3 -3 -3 -3 -3 -3 -3 -3 -2 -2 -2 -2 -2 -2 -2 -1 -1 -1 -1 -1 -0 -0 0 0 0 0 1 1 1 2 2 2 2 2 3 3 3 3 3 3 3 3 3 4 4 5 5 4 5
-3 -3 -3 -3 -3 -3 -4 -4 -4 -4 -3 -3 -3 -3 -3 -3 -3 -2 -2 -2 -1 -1 -1 -1 -1 -0 -0 -0 -0 0 0 1 1 1 2 2 2 2 2 3 3 2 2 3 2 2 3 3 4 4 5 4
-4 -4 -3 -3 -3 -3 -3 -4 -4 -4 -4 -4 -4 -3 -3 -3 -3 -3 -2 -2 -2 -2 -1 -1 -1 -1 -1 -1 -0 -0 -0 0 1 1 1 1 2 2 2 2 2 2 2 2 2 2 2 3 3 3 4 4
-4 -3 -3 -3 -3 -3 -3 -4 -4 -4 -4 -4 -4 -4 -4 -4 -4 -3 -3 -3 -2 -2 -2 -2 -1 -1 -1 -1 -1 -1 -0 0 0 1 1 1 1 1 2 2 2 2 2 2 2 2 2 2 3 3 3 4
-3 -3 -3 -3 -4 -4 -4 -4 -4 -4 -4 -5 -5 -5 -5 -5 -4 -4 -4 -3 -3 -3 -2 -2 -2 -2 -1 -1 -1 -1 -1 -1 -0 -0 -0 0 1 1 1 2 2 2 2 2 3 3 3 3 3 3 4 4
-3 -3 -4 -4 -4 -4 -4 -4 -4 -4 -5 -5 -5 -5 -5 -5 -5 -5 -4 -4 -4 -3 -3 -3 -2 -2 -2 -1 -1 -1 -1 -1 -1 -1 -1 -0 0 1 1 2 2 2 2 3 3 4 4 4 4 4 3 3
-4 -4 -4 -4 -4 -4 -4 -4 -4 -5 -5 -5 -5 -5 -5 -5 -5 -5 -5 -5 -4 -4 -4 -4 -3 -3 -2 -2 -2 -1 -1 -1 -1 -1 -1 -1 -0 1 1 2 2 2 2 2 3 3 3 4 5 5 4 3
-4 -4 -4 -5 -5 -5 -5 -5 -5 -5 -5 -5 -5 -5 -6 -6 -6 -5 -5 -5 -5 -5 -5 -4 -4 -3 -3 -2 -2 -2 -2 -1 -1 -1 -1 -1 -1 -0 1 1 1 1 2 2 3 3 3 4 4 4 5 5
-4 -4 -5 -5 -5 -5 -5 -5 -5 -5 -5 -5 -5 -6 -6 -6 -6 -6 -6 -6 -6 -6 -5 -5 -4 -4 -3 -3 -2 -2 -2 -2 -1 -1 -1 -1 -1 -1 -0 1 1 1 1 1 2 2 3 4 3 4 5 6
-4 -5 -5 -5 -5 -6 -6 -5 -5 -5 -5 -6 -6 -6 -6 -6 -6 -6 -6 -6 -6 -6 -6 -5 -5 -4 -4 -3 -3 -2 -2 -2 -2 -2 -2 -2 -2 -1 -1 -1 -0 0 1 1 1 2 2 3 3 4 4 3
-5 -5 -6 -6 -6 -6 -6 -6 -6 -6 -6 -7 -7 -7 -7 -7 -7 -7 -7 -6 -6 -6 -6 -6 -5 -5 -4 -4 -3 -3 -2 -2 -2 -2 -2 -2 -2 -2 -2 -1 -1 -1 -0 0 1 1 1 2 2 2 2 2
Height
839 839 838 837 837 837 837 836 835 835 833 832 831 829 829 828 827 827 825 824 824 823 823 822 822 822 823 824 824 824 824 824 825 825 825 825 826 826 826 827 826 827 828 830 831 832 832 832 833 834 835 835
841 841 840 839 839 838 838 837 836 835 835 834 833 831 830 830 829 828 826 825 824 823 823 822 822 822 822 823 823 823 823 824 824 824 825 824 825 825 825 826 826 826 827 828 830 831 832 832 833 833 834 835
843 842 842 841 840 839 839 838 837 836 836 835 834 833 832 832 831 830 828 826 825 824 823 822 822 822 822 822 822 822 823 823 824 824 824 824 824 824 825 825 825 825 825 826 828 830 831 832 833 833 834 835
845 844 843 843 842 841 840 839 838 837 837 836 835 834 834 834 833 832 829 828 826 825 824 823 823 822 822 822 822 822 822 822 823 823 823 823 823 824 824 824 825 825 825 825 827 828 830 832 833 833 834 834
846 845 844 844 843 842 841 840 839 839 838 837 836 835 835 834 834 833 831 829 828 826 824 824 824 823 823 823 823 823 823 822 822 822 823 823 823 823 824 824 824 824 824 825 826 827 829 831 832 833 833 833
848 847 846 845 843 843 842 841 841 839 839 837 836 836 835 835 834 834 833 831 828 826 825 824 823 824 824 823 823 824 824 823 822 822 821 822 823 823 823 823 824 824 824 825 826 826 828 830 831 832 832 832
851 849 847 846 845 844 843 842 841 840 839 838 837 837 836 835 835 835 834 832 829 826 824 823 823 823 823 823 823 823 823 823 823 823 822 822 823 823 823 823 824 824 824 825 825 826 827 828 830 831 831 832
852 851 850 848 847 845 844 843 842 841 840 839 838 837 836 836 835 835 835 833 830 826 824 823 823 822 822 822 822 823 823 823 823 824 823 822 822 822 822 822 823 823 823 823 824 825 826 827 828 830 830 831
853 852 851 850 848 847 845 844 843 842 841 840 839 838 837 836 835 835 834 832 830 826 824 823 822 821 821 822 823 823 822 822 822 823 823 822 821 821 821 822 822 823 823 823 823 824 825 826 827 828 829 830
855 854 852 851 849 848 847 845 844 843 842 841 840 839 838 837 835 835 833 831 829 827 825 824 823 822 822 823 823 823 823 822 822 822 822 821 821 821 821 821 821 822 823 823 823 824 824 825 826 827 828 829
856 855 854 852 850 849 848 846 845 844 843 842 840 839 838 837 836 834 832 830 828 827 826 825 824 823 823 823 823 824 824 822 822 822 822 821 820 820 821 821 820 821 822 822 823 823 824 824 825 826 827 828
857 856 855 853 852 850 849 847 846 844 843 842 840 839 837 837 835 834 832 829 828 826 825 824 824 823 823 823 824 824 824 823 822 822 822 822 821 820 820 820 820 820 821 822 822 822 823 824 825 826 826 827
858 857 855 854 852 851 849 848 847 845 844 842 841 839 837 836 835 833 832 830 828 826 825 824 823 823 823 823 823 824 823 822 822 822 823 822 821 820 819 819 819 819 819 820 821 821 822 823 824 824 825 826
858 857 855 854 852 851 849 848 846 845 844 842 841 839 837 836 835 833 832 830 829 828 826 825 824 823 822 822 822 823 822 822 822 822 822 822 821 819 818 818 818 818 818 819 819 819 820 821 822 823 824 825
858 857 855 853 852 850 849 847 846 845 843 842 841 839 838 836 835 833 832 831 829 829 828 826 825 824 823 822 822 822 822 821 821 821 822 822 821 819 818 817 817 817 817 817 817 817 818 819 821 821 822 822
858 857 855 853 852 850 848 847 845 844 843 842 840 839 838 836 835 834 832 831 829 828 828 826 825 824 823 823 822 822 821 820 821 821 822 822 820 818 817 816 816 816 816 816 816 816 816 817 818 820 820 820
858 856 855 853 852 850 848 846 845 843 842 841 840 838 837 836 835 833 832 830 829 828 827 826 825 824 823 822 822 821 820 820 820 820 820 820 819 817 816 815 815 814 815 815 815 814 814 815 816 817 818 819
859 857 855 853 852 850 849 846 844 843 841 840 839 838 836 835 834 833 832 830 828 827 825 824 823 822 822 821 820 819 819 819 819 819 818 818 817 815 814 814 814 813 813 813 813 813 813 813 814 815 816 816
859 857 855 853 852 850 849 846 844 842 841 839 838 837 835 834 833 832 831 829 828 826 824 823 821 821 820 819 819 818 817 817 817 817 816 816 815 814 813 813 812 812 812 812 812 812 812 812 812 813 813 814
858 856 854 852 851 849 848 846 844 842 840 839 837 836 835 833 832 830 829 828 827 825 823 822 820 819 818 817 817 816 815 815 815 814 814 814 813 812 812 811 811 811 811 811 811 810 810 810 810 810 810 811
857 855 853 851 849 847 846 844 843 841 840 838 837 835 834 832 831 829 828 827 826 824 822 821 819 817 816 815 815 814 813 813 812 812 812 812 811 811 810 810 810 810 810 809 809 809 809 808 808 808 808 808
855 853 851 849 847 845 844 842 841 840 839 838 836 834 833 831 829 828 826 825 824 823 821 819 818 816 815 814 813 812 811 811 810 810 810 809 810 810 809 809 809 808 808 808 807 807 807 807 806 805 805 806
853 851 849 846 845 843 841 840 839 838 837 837 835 833 832 830 828 826 825 823 822 821 820 818 816 815 813 812 811 810 809 809 808 808 808 808 808 808 808 808 808 807 807 806 805 804 804 804 804 803 803 803
851 848 846 844 842 841 839 838 836 836 835 835 834 832 830 828 827 825 823 822 820 819 818 817 815 813 812 810 809 808 807 807 806 806 806 806 806 806 806 806 806 806 805 805 804 803 802 801 801 801 800 800
849 846 843 841 840 839 837 836 834 834 834 833 832 830 828 826 825 823 821 820 819 818 816 815 814 812 810 809 807 806 805 805 804 804 804 804 804 804 804 804 804 805 804 803 802 801 799 798 797 797 797 797
846 843 842 841 839 838 836 834 833 832 832 831 830 828 826 824 823 821 820 819 818 816 815 814 812 810 809 807 806 804 803 803 802 802 802 802 802 802 802 801 801 802 803 801 800 799 797 795 794 793 794 794
843 842 841 840 838 837 835 833 832 831 830 829 827 826 824 822 821 819 818 817 816 815 813 812 810 808 807 805 804 802 801 801 800 800 800 800 800 800 799 799 799 800 800 799 798 797 796 794 792 790 789 789
842 841 840 838 837 835 833 831 830 829 828 827 825 824 822 820 819 817 816 815 814 813 811 809 808 806 805 803 802 800 799 798 798 797 797 798 798 798 797 796 796 797 798 797 796 795 794 792 791 789 785 785
841 840 838 837 835 834 832 830 829 827 826 824 823 821 820 818 816 815 814 813 811 810 808 806 805 804 802 801 799 798 797 796 795 795 795 796 796 796 796 795 794 794 795 795 795 794 792 791 790 787 785 785
840 838 837 835 834 833 831 829 827 826 824 822 821 819 817 815 814 813 810 809 807 806 804 803 802 801 799 798 797 795 794 793 793 793 793 793 794 794 794 794 793 793 793 793 793 793 792 791 789 787 787 789
838 837 835 834 834 832 830 828 825 824 823 820 818 815 813 811 810 809 807 805 803 802 801 800 798 797 796 794 793 792 791 791 790 790 790 790 791 792 792 793 792 792 792 791 791 791 791 790 790 789 789 790
Wind_Speed
30 29 28 28 27 27 27 26 27 27 26 24 22 19 18 20 22 23 23 23 20 17 13 10 10 9 5 4 4 3 3 3 3 4 4 6 8 10 11 11 12 15 16 16 14 12 9 5 6 9 10 11
31 30 29 28 27 27 26 26 26 26 26 26 26 23 21 21 21 22 24 25 24 21 18 15 14 14 11 9 8 5 5 4 3 4 4 3 5 9 12 11 11 14 17 18 15 14 11 7 6 7 10 11
31 30 30 29 28 28 26 25 25 25 25 25 25 25 23 23 22 22 23 24 25 23 21 19 19 19 17 15 12 9 7 6 4 5 4 2 3 5 9 11 12 12 16 19 17 15 12 9 7 6 10 11
30 30 29 29 29 28 27 26 25 24 24 24 24 25 24 23 24 24 23 23 24 24 23 22 21 21 20 19 16 13 12 10 7 6 5 3 4 4 5 10 13 11 14 18 17 16 15 11 9 9 10 11
29 29 29 29 29 28 27 27 26 25 24 24 24 24 24 24 25 25 25 24 24 24 24 23 22 21 20 20 20 17 14 14 12 9 7 6 6 6 5 6 11 12 12 15 17 17 16 13 11 12 11 12
24 26 26 27 27 27 28 27 27 26 25 25 24 24 24 24 25 26 26 26 24 24 24 23 23 22 21 19 19 18 16 15 15 13 10 8 9 8 7 5 7 11 12 14 18 18 16 15 14 14 13 12
20 21 21 21 22 23 25 26 26 26 25 25 24 23 24 23 24 24 25 26 26 25 24 23 23 23 23 21 19 18 18 16 15 15 14 11 11 10 8 7 6 8 12 14 18 19 18 18 16 14 14 13
20 19 18 18 19 18 19 21 21 23 24 23 23 22 22 22 22 22 22 23 25 25 25 24 24 23 23 23 23 20 20 18 16 15 14 13 12 12 10 7 7 8 10 14 16 20 20 20 19 15 14 14
20 19 18 18 18 17 16 18 17 18 19 20 21 21 20 20 20 20 20 22 23 24 25 25 26 25 25 24 24 23 22 21 19 17 15 14 13 11 11 9 8 7 7 12 14 19 21 21 21 18 16 16
19 20 19 18 18 17 16 17 16 16 16 16 17 18 18 18 18 19 20 21 22 22 23 24 25 25 25 23 22 22 22 22 21 20 18 15 13 11 9 9 8 7 7 11 12 14 19 21 21 21 17 16
19 20 20 19 18 17 17 17 15 15 15 14 14 15 16 15 15 15 17 19 21 21 21 21 22 22 23 23 22 20 20 20 20 20 19 17 14 12 9 6 6 7 7 11 11 11 17 21 22 23 20 17
20 20 20 19 18 17 17 16 15 15 14 14 13 14 15 15 14 13 13 16 17 18 19 19 19 19 20 21 21 19 18 18 18 19 19 17 15 13 11 8 5 4 6 10 13 14 19 22 23 25 23 20
20 20 20 20 19 18 17 16 15 15 14 13 13 13 15 15 14 14 13 14 14 14 15 16 16 17 17 18 19 19 18 17 17 17 18 18 15 13 11 10 7 5 5 7 12 15 19 23 25 27 26 23
21 20 20 20 20 18 18 17 17 15 14 13 13 12 14 14 14 14 13 13 14 13 12 12 12 13 14 16 16 17 17 17 16 16 17 17 16 14 12 11 10 8 7 9 10 13 17 21 25 28 29 27
20 20 20 20 20 18 19 19 18 15 14 13 13 13 14 14 14 14 13 13 13 13 12 11 9 9 10 11 11 12 13 15 15 15 16 16 16 15 13 12 11 10 8 10 12 14 15 18 22 27 30 31
20 20 20 20 20 19 20 20 18 16 15 14 14 14 14 14 15 14 13 13 13 13 13 11 10 9 8 8 8 8 9 12 13 13 14 15 15 15 14 13 12 11 10 10 12 15 17 18 21 24 29 31
19 18 19 20 20 20 21 20 18 17 16 15 15 15 15 16 16 15 14 14 14 14 13 12 12 11 10 9 8 7 8 10 10 11 12 14 14 14 15 14 13 12 11 10 12 14 17 20 22 24 27 30
17 17 18 19 19 20 21 20 19 18 16 15 16 16 16 16 16 16 15 15 15 14 13 13 12 11 11 10 9 9 8 9 9 9 10 11 12 13 14 14 13 12 12 11 11 13 16 19 22 25 28 29
15 15 17 17 18 20 21 20 19 17 17 17 17 17 17 17 17 16 16 15 15 14 13 13 12 12 11 11 11 11 9 9 10 10 10 9 9 11 13 14 14 13 12 13 13 13 15 17 20 23 26 29
13 13 14 15 16 18 20 20 18 18 18 18 18 18 18 18 18 17 16 16 15 15 14 13 13 12 11 11 11 11 11 11 11 11 10 10 8 9 11 13 15 15 14 14 14 14 15 16 18 21 24 27
12 12 13 13 14 16 18 18 17 18 19 19 19 19 19 19 19 19 18 17 16 16 15 14 14 12 11 11 11 11 11 11 11 11 11 11 10 9 9 10 13 15 16 16 14 14 14 16 18 20 22 24
11 12 12 12 13 14 15 15 16 18 18 18 19 19 19 20 20 20 19 19 19 18 17 15 14 14 12 11 11 11 10 11 11 12 12 12 12 11 10 10 10 11 13 15 14 14 15 16 18 19 21 23
11 11 12 12 12 13 13 14 15 17 17 18 19 19 20 21 21 20 20 20 20 21 19 17 16 15 14 12 11 11 11 11 11 11 12 12 13 12 12 11 11 10 10 12 13 15 17 18 18 18 19 22
12 12 13 13 13 14 14 15 16 16 16 18 19 20 21 21 21 20 20 20 20 21 20 19 18 16 15 13 12 12 11 11 11 11 11 12 13 13 13 13 12 12 10 11 13 14 16 19 20 20 20 22
13 14 14 14 15 16 16 16 16 16 16 18 19 20 20 20 20 20 20 20 20 21 21 20 19 17 16 14 13 13 12 12 12 12 12 12 12 13 14 14 14 13 11 10 11 12 14 17 18 19 21 22
14 15 15 15 15 16 17 16 16 17 17 18 19 19 18 18 19 19 20 20 19 20 20 20 20 18 17 15 14 14 13 12 12 13 13 12 13 14 15 16 15 14 13 10 9 9 10 11 13 15 18 21
15 15 16 17 17 18 18 18 18 18 18 17 18 17 17 18 19 19 20 19 20 21 20 20 20 19 18 17 17 16 15 14 13 13 13 13 14 14 15 16 16 16 15 12 10 9 7 7 8 8 12 16
15 17 18 19 19 18 18 19 18 18 17 16 17 17 17 18 18 19 21 22 23 23 22 21 21 21 19 18 17 18 18 16 14 13 12 13 14 14 15 16 16 16 16 15 12 8 6 6 6 7 7 8
18 20 21 21 20 18 17 18 17 17 18 16 17 18 18 19 20 22 26 27 26 25 24 23 22 23 21 20 19 18 18 18 15 13 13 13 14 14 15 16 16 16 16 16 16 12 8 6 5 6 5 6
21 22 21 19 19 18 19 19 19 19 20 19 19 20 21 22 24 27 30 29 27 25 25 24 23 23 23 21 20 19 19 18 16 15 14 13 13 14 14 14 15 16 15 15 17 18 15 12 9 7 5 5
21 19 16 16 17 17 19 20 21 21 22 23 23 23 25 27 28 29 29 27 25 24 25 25 24 24 24 23 21 21 21 19 18 17 14 12 11 12 13 13 14 14 14 14 16 18 19 18 16 14 10 6
Wind_Direction
54 52 51 52 53 52 53 49 46 46 45 46 49 51 53 55 57 58 58 56 57 54 54 61 55 49 38 2 344 317 325 323 269 261 267 253 240 238 233 220 211 205 198 193 192 193 189 170 173 187 190 192
52 53 52 51 51 52 52 50 48 47 47 48 46 47 51 50 49 53 54 52 54 56 53 53 48 40 32 23 18 357 344 342 321 328 314 261 253 248 238 228 217 208 205 200 196 195 194 187 177 185 193 192
49 49 50 49 49 49 48 47 47 45 43 44 43 42 44 44 42 44 49 48 48 52 53 53 50 43 32 19 12 11 7 353 338 351 349 295 295 269 244 236 226 218 212 202 195 199 199 194 186 184 195 194
45 45 46 45 46 46 43 43 43 42 39 38 37 36 35 34 33 34 38 41 41 44 47 46 47 47 42 32 18 11 11 7 354 340 345 337 319 310 268 240 227 218 215 207 196 199 200 197 194 189 195 199
38 38 39 39 40 41 40 39 38 37 36 34 33 31 29 26 24 23 25 28 32 36 38 37 37 38 38 37 30 21 14 12 9 349 335 332 319 313 293 253 234 218 210 207 197 199 202 195 195 196 200 200
29 30 31 32 32 34 34 35 35 34 32 31 30 29 27 24 21 18 17 16 20 25 29 30 30 29 26 28 29 26 21 18 16 5 351 343 333 320 296 282 258 224 204 202 201 203 204 197 197 200 202 200
22 23 24 24 25 26 27 28 30 30 29 28 27 27 25 23 20 17 14 11 12 13 15 19 21 21 19 18 18 17 17 17 17 10 5 3 355 344 317 293 285 244 207 204 209 208 206 204 203 201 201 201
19 18 17 17 17 18 19 21 23 24 25 25 23 23 22 21 18 15 12 9 9 9 6 6 7 10 12 12 11 8 7 7 8 6 5 8 7 1 349 322 298 276 217 201 208 210 209 210 207 200 200 203
15 14 13 13 11 11 12 13 15 18 19 18 17 17 18 16 14 13 10 8 7 9 7 3 1 2 5 6 5 2 360 358 357 356 356 1 5 5 1 350 322 294 237 204 201 208 213 214 211 204 199 201
13 11 10 7 6 6 5 6 8 11 12 10 11 12 12 11 10 8 6 6 6 7 7 5 2 360 360 1 1 358 354 352 349 347 348 350 354 358 1 356 338 313 268 229 208 211 219 217 214 211 206 200
11 9 7 3 1 1 359 360 1 2 3 2 5 6 6 5 3 4 3 2 2 4 4 3 0 356 355 354 354 354 350 347 343 339 340 342 342 342 343 345 339 327 295 256 235 225 228 223 217 217 214 205
7 5 3 1 358 357 354 353 354 353 353 355 358 0 2 0 356 356 358 359 360 359 359 359 355 351 348 347 346 346 345 343 338 333 331 333 334 334 331 328 319 307 301 276 257 241 232 227 221 220 219 212
3 1 360 358 356 353 350 348 346 344 344 348 350 354 357 356 353 352 351 354 355 353 353 352 350 346 341 339 338 336 337 337 332 327 324 326 327 328 326 320 312 287 267 266 266 257 243 231 221 219 221 218
359 358 356 355 353 350 349 345 339 338 338 340 343 346 350 351 350 347 345 345 345 345 344 344 344 340 333 329 329 327 327 327 325 321 317 318 320 322 322 317 309 292 265 248 251 259 259 244 226 219 220 220
357 356 354 352 350 348 346 343 338 334 332 334 336 339 343 345 344 340 337 338 338 336 332 330 331 328 322 319 317 317 317 316 316 313 309 309 313 315 315 314 307 297 278 257 244 243 254 255 240 229 225 221
355 355 353 351 349 346 343 341 338 333 328 328 330 332 336 337 335 333 330 328 329 328 323 319 318 315 311 307 300 299 302 304 305 302 299 299 303 308 308 308 306 299 286 269 256 242 240 246 245 238 234 230
353 353 353 352 349 345 341 338 336 333 327 325 327 328 330 331 330 328 324 322 321 319 316 312 310 307 304 301 296 290 288 291 295 295 296 295 296 301 304 305 304 301 292 277 266 254 243 240 241 238 236 236
349 349 350 351 350 347 343 338 333 331 328 325 326 325 325 326 327 325 322 319 317 314 311 308 306 304 301 299 298 294 286 283 283 287 291 295 296 296 299 304 305 302 297 285 273 265 254 246 244 240 234 235
343 344 346 347 348 348 346 340 334 330 328 325 323 321 320 322 323 322 321 318 316 313 308 306 304 302 299 298 297 293 288 284 280 280 283 288 294 295 295 298 302 303 300 292 282 273 265 256 252 248 240 235
336 338 340 341 343 345 346 343 339 333 328 323 320 319 317 316 318 317 316 316 314 311 307 303 301 300 299 300 296 290 287 285 279 277 278 280 283 291 294 294 297 299 299 297 289 281 274 267 260 255 250 241
329 330 331 333 336 341 345 344 341 336 329 324 320 318 315 314 314 311 309 310 311 308 303 301 299 296 297 299 295 290 287 281 277 275 273 275 275 279 286 289 292 293 296 298 293 285 278 274 269 262 257 250
318 322 324 326 329 335 340 340 338 334 329 325 320 316 313 313 312 308 304 302 304 304 301 298 296 293 293 294 292 288 285 280 275 272 270 270 270 270 275 278 283 287 292 296 294 289 283 277 273 267 263 257
308 315 320 321 324 329 332 333 333 331 327 324 321 317 312 310 308 306 303 298 297 298 298 296 294 291 289 288 288 284 282 279 274 270 266 264 264 264 264 266 272 278 283 289 290 287 284 279 274 270 268 262
307 314 320 321 322 324 326 328 328 326 323 321 320 317 313 309 304 302 302 298 293 292 293 294 292 290 287 283 283 280 277 275 272 272 270 265 261 259 258 258 261 267 271 279 281 280 280 279 276 271 268 265
309 314 318 319 319 320 320 321 321 319 316 315 314 314 313 310 306 303 302 299 293 289 290 290 290 288 285 280 276 275 274 274 273 275 274 269 262 256 254 255 256 259 263 269 274 275 273 273 273 267 263 261
305 310 314 313 312 313 314 313 312 310 307 307 308 308 310 310 309 305 302 300 294 290 289 288 288 286 283 278 273 273 274 273 273 272 269 265 261 255 251 252 253 252 253 257 264 273 274 272 266 255 254 253
298 303 306 303 301 304 306 305 303 300 298 300 301 302 307 308 307 304 301 299 296 291 288 287 285 284 281 275 270 271 273 271 267 265 262 258 256 255 253 253 251 246 246 252 259 267 267 269 268 248 239 242
294 299 299 296 294 295 296 296 295 294 293 294 297 300 303 305 304 302 299 295 293 288 284 283 282 280 278 274 269 267 268 266 262 259 255 252 251 251 253 252 251 246 244 246 249 256 256 254 264 252 241 244
298 300 300 298 295 292 292 293 293 293 293 294 297 299 300 301 301 300 297 291 286 282 280 279 277 275 274 270 266 263 262 261 258 254 248 248 248 248 250 252 252 249 246 243 241 245 251 252 254 247 263 296
307 304 302 300 298 297 297 296 296 297 298 298 297 297 297 297 298 298 294 286 279 277 276 275 273 271 269 266 261 256 256 255 252 249 246 244 247 247 246 249 251 249 245 244 242 242 244 250 261 268 289 310
315 312 309 307 302 300 300 298 298 299 299 300 299 298 297 296 296 295 289 280 276 275 274 273 272 269 264 261 257 251 248 248 247 246 243 238 241 246 245 244 246 246 244 245 244 241 243 247 252 260 268 268